Time,TemperatureF,DewpointF,PressureIn,WindDirection,WindDirectionDegrees,WindSpeedMPH,WindSpeedGustMPH,Humidity,HourlyPrecipIn,Conditions,Clouds,dailyrainin,SoftwareType,DateUTC
2013-03-26 00:02:00,29.8,21.0,29.66,WSW,258,8.0,22.0,69,0.00,,,0.04,meteohub,2013-03-26 04:02:00,
2013-03-26 00:07:00,30.0,21.0,29.66,SW,235,6.0,22.0,69,0.00,,,0.00,meteohub,2013-03-26 04:07:00,
2013-03-26 00:12:00,30.0,21.0,29.66,SSE,168,6.0,22.0,69,0.00,,,0.00,meteohub,2013-03-26 04:12:00,
2013-03-26 00:22:00,29.8,21.0,29.66,South,190,8.0,23.0,69,0.00,,,0.00,meteohub,2013-03-26 04:22:00,
2013-03-26 00:27:00,30.0,21.0,29.69,SW,235,12.0,19.0,69,0.00,,,0.00,meteohub,2013-03-26 04:27:00,
2013-03-26 00:32:00,30.0,21.0,29.69,NNW,348,3.0,34.0,69,0.00,,,0.00,meteohub,2013-03-26 04:32:00,
2013-03-26 00:37:00,30.0,21.0,29.69,ESE,122,9.0,34.0,69,0.00,,,0.00,meteohub,2013-03-26 04:37:00,
2013-03-26 00:42:00,30.0,20.5,29.69,West,280,4.0,34.0,67,0.00,,,0.00,meteohub,2013-03-26 04:42:00,
2013-03-26 00:47:00,30.2,20.7,29.69,SSE,168,12.0,26.0,67,0.00,,,0.00,meteohub,2013-03-26 04:47:00,
2013-03-26 00:52:00,30.2,20.3,29.69,SSW,212,22.0,26.0,66,0.00,,,0.00,meteohub,2013-03-26 04:52:00,
2013-03-26 00:57:00,30.2,19.9,29.69,WSW,258,5.0,22.0,65,0.00,,,0.00,meteohub,2013-03-26 04:57:00,
2013-03-26 01:02:00,30.2,19.9,29.69,WSW,258,8.0,22.0,65,0.00,,,0.00,meteohub,2013-03-26 05:02:00,
2013-03-26 01:07:00,30.2,20.3,29.69,SSW,212,8.0,22.0,66,0.00,,,0.00,meteohub,2013-03-26 05:07:00,
2013-03-26 01:12:00,30.2,20.3,29.69,SW,235,7.0,20.0,66,0.00,,,0.00,meteohub,2013-03-26 05:12:00,
2013-03-26 01:17:00,30.2,19.9,29.69,North,10,13.0,20.0,65,0.00,,,0.00,meteohub,2013-03-26 05:17:00,
2013-03-26 01:27:00,30.4,19.4,29.69,SSW,212,8.0,22.0,63,0.00,,,0.00,meteohub,2013-03-26 05:27:00,
2013-03-26 01:37:00,30.2,19.9,29.69,SW,235,7.0,25.0,65,0.00,,,0.00,meteohub,2013-03-26 05:37:00,
2013-03-26 01:42:00,30.2,19.9,29.69,SW,235,8.0,25.0,65,0.00,,,0.00,meteohub,2013-03-26 05:42:00,
2013-03-26 01:47:00,30.2,20.3,29.69,South,190,9.0,25.0,66,0.00,,,0.00,meteohub,2013-03-26 05:47:00,
2013-03-26 01:57:00,30.2,20.3,29.69,South,190,7.0,26.0,66,0.00,,,0.00,meteohub,2013-03-26 05:57:00,
2013-03-26 02:07:00,30.2,20.3,29.69,South,190,8.0,26.0,66,0.00,,,0.00,meteohub,2013-03-26 06:07:00,
2013-03-26 02:12:00,30.2,19.9,29.66,NW,325,9.0,21.0,65,0.00,,,0.00,meteohub,2013-03-26 06:12:00,
2013-03-26 02:17:00,30.0,20.1,29.66,ENE,78,3.0,20.0,66,0.00,,,0.00,meteohub,2013-03-26 06:17:00,
2013-03-26 02:22:00,30.0,20.1,29.66,South,190,7.0,19.0,66,0.00,,,0.00,meteohub,2013-03-26 06:22:00,
2013-03-26 02:27:00,30.0,20.5,29.66,SSW,212,7.0,19.0,67,0.00,,,0.00,meteohub,2013-03-26 06:27:00,
2013-03-26 02:32:00,30.0,20.5,29.66,North,10,12.0,21.0,67,0.00,,,0.00,meteohub,2013-03-26 06:32:00,
2013-03-26 02:42:00,29.8,20.7,29.66,SSE,168,3.0,21.0,68,0.00,,,0.00,meteohub,2013-03-26 06:42:00,
2013-03-26 02:52:00,29.7,20.8,29.66,South,190,5.0,25.0,69,0.00,,,0.00,meteohub,2013-03-26 06:52:00,
2013-03-26 02:57:00,29.7,20.8,29.69,SSW,212,8.0,25.0,69,0.00,,,0.00,meteohub,2013-03-26 06:57:00,
2013-03-26 03:02:00,29.7,20.8,29.69,WNW,302,11.0,25.0,69,0.00,,,0.00,meteohub,2013-03-26 07:02:00,
2013-03-26 03:07:00,29.7,20.8,29.69,SSW,212,8.0,21.0,69,0.00,,,0.00,meteohub,2013-03-26 07:07:00,
2013-03-26 03:17:00,29.7,20.8,29.69,SSW,212,8.0,19.0,69,0.00,,,0.00,meteohub,2013-03-26 07:17:00,
2013-03-26 03:22:00,29.7,20.5,29.69,SSW,212,6.0,20.0,68,0.00,,,0.00,meteohub,2013-03-26 07:22:00,
2013-03-26 03:27:00,29.7,20.5,29.69,WSW,258,4.0,21.0,68,0.00,,,0.00,meteohub,2013-03-26 07:27:00,
2013-03-26 03:32:00,29.7,20.5,29.69,WSW,258,9.0,21.0,68,0.00,,,0.00,meteohub,2013-03-26 07:32:00,
2013-03-26 03:37:00,29.7,20.8,29.69,SSW,212,7.0,21.0,69,0.00,,,0.00,meteohub,2013-03-26 07:37:00,
2013-03-26 03:47:00,29.7,20.5,29.69,SSW,212,6.0,17.0,68,0.00,,,0.00,meteohub,2013-03-26 07:47:00,
2013-03-26 03:52:00,29.7,20.5,29.69,SW,235,12.0,17.0,68,0.00,,,0.00,meteohub,2013-03-26 07:52:00,
2013-03-26 03:57:00,29.7,20.5,29.69,SE,145,8.0,17.0,68,0.00,,,0.00,meteohub,2013-03-26 07:57:00,
2013-03-26 04:02:00,29.7,20.5,29.69,North,10,2.0,16.0,68,0.00,,,0.00,meteohub,2013-03-26 08:02:00,
2013-03-26 04:07:00,29.7,20.5,29.69,NNW,348,21.0,21.0,68,0.00,,,0.00,meteohub,2013-03-26 08:07:00,
2013-03-26 04:12:00,29.8,20.3,29.69,WSW,258,5.0,24.0,67,0.00,,,0.00,meteohub,2013-03-26 08:12:00,
2013-03-26 04:17:00,29.8,20.3,29.69,NNW,348,10.0,24.0,67,0.00,,,0.00,meteohub,2013-03-26 08:17:00,
2013-03-26 04:22:00,29.8,20.3,29.69,ENE,78,6.0,21.0,67,0.00,,,0.00,meteohub,2013-03-26 08:22:00,
2013-03-26 04:27:00,29.8,19.9,29.69,WSW,258,7.0,16.0,66,0.00,,,0.00,meteohub,2013-03-26 08:27:00,
2013-03-26 04:37:00,29.8,19.9,29.69,SSW,212,7.0,15.0,66,0.00,,,0.00,meteohub,2013-03-26 08:37:00,
2013-03-26 04:42:00,29.8,19.9,29.69,West,280,2.0,17.0,66,0.00,,,0.00,meteohub,2013-03-26 08:42:00,
2013-03-26 04:47:00,29.8,19.9,29.69,SW,235,8.0,17.0,66,0.00,,,0.00,meteohub,2013-03-26 08:47:00,
2013-03-26 04:52:00,29.8,19.9,29.69,WSW,258,4.0,17.0,66,0.00,,,0.00,meteohub,2013-03-26 08:52:00,
2013-03-26 04:57:00,29.8,20.3,29.72,SSW,212,14.0,14.0,67,0.00,,,0.00,meteohub,2013-03-26 08:57:00,
2013-03-26 05:07:00,29.8,19.9,29.72,WSW,258,8.0,16.0,66,0.00,,,0.00,meteohub,2013-03-26 09:07:00,
2013-03-26 05:12:00,29.8,20.3,29.72,SSE,168,5.0,17.0,67,0.00,,,0.00,meteohub,2013-03-26 09:12:00,
2013-03-26 05:17:00,29.8,20.3,29.72,SE,145,4.0,17.0,67,0.00,,,0.00,meteohub,2013-03-26 09:17:00,
2013-03-26 05:22:00,29.8,20.3,29.72,SSW,212,4.0,17.0,67,0.00,,,0.00,meteohub,2013-03-26 09:22:00,
2013-03-26 05:27:00,29.8,20.3,29.72,SE,145,4.0,17.0,67,0.00,,,0.00,meteohub,2013-03-26 09:27:00,
2013-03-26 05:32:00,29.8,20.3,29.72,SSW,212,7.0,17.0,67,0.00,,,0.00,meteohub,2013-03-26 09:32:00,
2013-03-26 05:42:00,29.8,20.3,29.72,WNW,302,5.0,15.0,67,0.00,,,0.00,meteohub,2013-03-26 09:42:00,
2013-03-26 05:47:00,29.8,20.3,29.72,WSW,258,15.0,15.0,67,0.00,,,0.00,meteohub,2013-03-26 09:47:00,
2013-03-26 05:52:00,30.0,20.5,29.72,SSW,212,6.0,15.0,67,0.00,,,0.00,meteohub,2013-03-26 09:52:00,
2013-03-26 06:02:00,30.2,20.3,29.72,South,190,5.0,24.0,66,0.00,,,0.00,meteohub,2013-03-26 10:02:00,
2013-03-26 06:07:00,30.2,20.3,29.72,SSW,212,3.0,24.0,66,0.00,,,0.00,meteohub,2013-03-26 10:07:00,
2013-03-26 06:12:00,30.2,20.3,29.72,WSW,258,12.0,14.0,66,0.00,,,0.00,meteohub,2013-03-26 10:12:00,
2013-03-26 06:17:00,30.2,20.3,29.72,NW,325,12.0,13.0,66,0.00,,,0.00,meteohub,2013-03-26 10:17:00,
2013-03-26 06:22:00,30.2,20.3,29.72,WSW,258,6.0,17.0,66,0.00,,,0.00,meteohub,2013-03-26 10:22:00,
2013-03-26 06:32:00,30.2,20.3,29.72,WNW,302,3.0,20.0,66,0.00,,,0.00,meteohub,2013-03-26 10:32:00,
2013-03-26 06:37:00,30.2,20.7,29.72,SSE,168,4.0,20.0,67,0.00,,,0.00,meteohub,2013-03-26 10:37:00,
2013-03-26 06:42:00,30.2,20.7,29.75,South,190,6.0,13.0,67,0.00,,,0.00,meteohub,2013-03-26 10:42:00,
2013-03-26 06:47:00,30.2,20.7,29.75,WSW,258,6.0,13.0,67,0.00,,,0.00,meteohub,2013-03-26 10:47:00,
2013-03-26 06:57:00,30.2,20.7,29.75,SSW,212,9.0,21.0,67,0.00,,,0.00,meteohub,2013-03-26 10:57:00,
2013-03-26 07:02:00,30.2,20.3,29.75,WSW,258,8.0,21.0,66,0.00,,,0.00,meteohub,2013-03-26 11:02:00,
2013-03-26 07:07:00,30.2,20.7,29.75,SSW,212,13.0,16.0,67,0.00,,,0.00,meteohub,2013-03-26 11:07:00,
2013-03-26 07:22:00,30.2,21.0,29.75,SW,235,3.0,15.0,68,0.00,,,0.00,meteohub,2013-03-26 11:22:00,
2013-03-26 07:37:00,30.4,20.8,29.75,SSW,212,5.0,13.0,67,0.00,,,0.00,meteohub,2013-03-26 11:37:00,
2013-03-26 07:42:00,30.4,21.0,29.75,NNE,32,4.0,13.0,68,0.00,,,0.00,meteohub,2013-03-26 11:42:00,
2013-03-26 07:52:00,30.6,21.2,29.75,NNW,348,4.0,13.0,68,0.00,,,0.00,meteohub,2013-03-26 11:52:00,
2013-03-26 07:57:00,30.7,21.4,29.75,SW,235,6.0,16.0,68,0.00,,,0.00,meteohub,2013-03-26 11:57:00,
2013-03-26 08:02:00,30.9,21.2,29.75,WSW,258,11.0,16.0,67,0.00,,,0.00,meteohub,2013-03-26 12:02:00,
2013-03-26 08:07:00,30.9,21.2,29.75,WSW,258,6.0,16.0,67,0.00,,,0.00,meteohub,2013-03-26 12:07:00,
2013-03-26 08:12:00,30.9,21.2,29.75,SSW,212,6.0,16.0,67,0.00,,,0.00,meteohub,2013-03-26 12:12:00,
2013-03-26 08:17:00,31.1,21.4,29.75,SSW,212,6.0,14.0,67,0.00,,,0.00,meteohub,2013-03-26 12:17:00,
2013-03-26 08:22:00,31.5,21.7,29.75,SW,235,4.0,16.0,67,0.00,,,0.00,meteohub,2013-03-26 12:22:00,
2013-03-26 08:27:00,31.5,21.4,29.75,SSW,212,2.0,16.0,66,0.00,,,0.00,meteohub,2013-03-26 12:27:00,
2013-03-26 08:32:00,31.6,21.6,29.75,NNW,348,6.0,16.0,66,0.00,,,0.00,meteohub,2013-03-26 12:32:00,
2013-03-26 08:42:00,31.8,21.4,29.75,WSW,258,12.0,13.0,65,0.00,,,0.00,meteohub,2013-03-26 12:42:00,
2013-03-26 08:52:00,32.0,21.6,29.75,South,190,3.0,16.0,65,0.00,,,0.00,meteohub,2013-03-26 12:52:00,
2013-03-26 08:57:00,32.2,21.7,29.78,SW,235,2.0,16.0,65,0.00,,,0.00,meteohub,2013-03-26 12:57:00,
2013-03-26 09:07:00,33.1,22.3,29.78,SSE,168,7.0,13.0,64,0.00,,,0.00,meteohub,2013-03-26 13:07:00,
2013-03-26 09:12:00,33.3,21.7,29.78,SSW,212,7.0,11.0,62,0.00,,,0.00,meteohub,2013-03-26 13:12:00,
2013-03-26 09:17:00,33.3,20.8,29.78,NNE,32,5.0,10.0,60,0.00,,,0.00,meteohub,2013-03-26 13:17:00,
2013-03-26 09:22:00,33.3,20.8,29.78,SW,235,5.0,10.0,60,0.00,,,0.00,meteohub,2013-03-26 13:22:00,
2013-03-26 09:27:00,33.1,20.3,29.78,South,190,4.0,15.0,59,0.00,,,0.00,meteohub,2013-03-26 13:27:00,
2013-03-26 09:37:00,33.1,20.3,29.78,WNW,302,4.0,15.0,59,0.00,,,0.00,meteohub,2013-03-26 13:37:00,
2013-03-26 09:42:00,33.3,20.8,29.78,WNW,302,4.0,12.0,60,0.00,,,0.00,meteohub,2013-03-26 13:42:00,
2013-03-26 09:47:00,33.3,20.5,29.78,NE,55,2.0,12.0,59,0.00,,,0.00,meteohub,2013-03-26 13:47:00,
2013-03-26 09:57:00,33.3,20.5,29.81,NW,325,6.0,12.0,59,0.00,,,0.00,meteohub,2013-03-26 13:57:00,
2013-03-26 10:02:00,33.1,20.7,29.81,South,190,3.0,12.0,60,0.00,,,0.00,meteohub,2013-03-26 14:02:00,
2013-03-26 10:07:00,33.1,20.7,29.81,SW,235,6.0,12.0,60,0.00,,,0.00,meteohub,2013-03-26 14:07:00,
2013-03-26 10:12:00,33.1,20.7,29.81,NW,325,5.0,12.0,60,0.00,,,0.00,meteohub,2013-03-26 14:12:00,
2013-03-26 10:17:00,33.3,20.8,29.81,WSW,258,4.0,12.0,60,0.00,,,0.00,meteohub,2013-03-26 14:17:00,
2013-03-26 10:22:00,33.6,21.2,29.81,NNW,348,6.0,12.0,60,0.00,,,0.00,meteohub,2013-03-26 14:22:00,
2013-03-26 10:27:00,33.6,21.2,29.81,NW,325,6.0,13.0,60,0.00,,,0.00,meteohub,2013-03-26 14:27:00,
2013-03-26 10:37:00,34.2,21.0,29.81,SW,235,6.0,13.0,58,0.00,,,0.00,meteohub,2013-03-26 14:37:00,
2013-03-26 10:42:00,34.5,21.4,29.78,West,280,4.0,10.0,58,0.00,,,0.00,meteohub,2013-03-26 14:42:00,
2013-03-26 10:52:00,35.2,21.6,29.78,NNW,348,5.0,11.0,57,0.00,,,0.00,meteohub,2013-03-26 14:52:00,
2013-03-26 10:57:00,35.6,21.6,29.81,SSW,212,5.0,11.0,56,0.00,,,0.00,meteohub,2013-03-26 14:57:00,
2013-03-26 11:02:00,35.6,20.7,29.81,SSW,212,12.0,12.0,54,0.00,,,0.00,meteohub,2013-03-26 15:02:00,
2013-03-26 11:12:00,36.0,21.0,29.81,SE,145,5.0,16.0,54,0.00,,,0.00,meteohub,2013-03-26 15:12:00,
2013-03-26 11:17:00,36.5,21.6,29.81,WSW,258,2.0,16.0,54,0.00,,,0.00,meteohub,2013-03-26 15:17:00,
2013-03-26 11:22:00,36.5,21.0,29.81,West,280,3.0,11.0,53,0.00,,,0.00,meteohub,2013-03-26 15:22:00,
2013-03-26 11:27:00,36.3,20.8,29.81,NNW,348,3.0,11.0,53,0.00,,,0.00,meteohub,2013-03-26 15:27:00,
2013-03-26 11:37:00,36.0,19.6,29.81,NNW,348,5.0,13.0,51,0.00,,,0.00,meteohub,2013-03-26 15:37:00,
2013-03-26 11:47:00,36.1,20.3,29.84,West,280,5.0,11.0,52,0.00,,,0.00,meteohub,2013-03-26 15:47:00,
2013-03-26 11:52:00,35.6,19.8,29.84,NNW,348,4.0,8.0,52,0.00,,,0.00,meteohub,2013-03-26 15:52:00,
2013-03-26 12:02:00,34.7,19.4,29.84,WNW,302,14.0,26.0,53,0.00,,,0.00,meteohub,2013-03-26 16:02:00,
2013-03-26 12:12:00,37.0,20.1,29.84,NNW,348,5.0,26.0,50,0.00,,,0.00,meteohub,2013-03-26 16:12:00,
2013-03-26 12:17:00,37.4,20.1,29.84,NNW,348,8.0,16.0,49,0.00,,,0.00,meteohub,2013-03-26 16:17:00,
2013-03-26 12:22:00,37.6,19.8,29.84,NE,55,8.0,16.0,48,0.00,,,0.00,meteohub,2013-03-26 16:22:00,
2013-03-26 12:27:00,37.9,19.6,29.84,WNW,302,8.0,11.0,47,0.00,,,0.00,meteohub,2013-03-26 16:27:00,
2013-03-26 12:32:00,37.6,18.1,29.84,NNW,348,8.0,11.0,45,0.00,,,0.00,meteohub,2013-03-26 16:32:00,
2013-03-26 12:37:00,37.6,18.7,29.84,NNW,348,5.0,12.0,46,0.00,,,0.00,meteohub,2013-03-26 16:37:00,
2013-03-26 12:42:00,36.7,16.9,29.84,North,10,10.0,13.0,44,0.00,,,0.00,meteohub,2013-03-26 16:42:00,
2013-03-26 12:47:00,36.5,17.2,29.84,North,10,4.0,15.0,45,0.00,,,0.00,meteohub,2013-03-26 16:47:00,
2013-03-26 12:52:00,36.3,17.1,29.84,NNW,348,16.0,17.0,45,0.00,,,0.00,meteohub,2013-03-26 16:52:00,
2013-03-26 12:57:00,36.1,16.9,29.84,North,10,17.0,20.0,45,0.00,,,0.00,meteohub,2013-03-26 16:57:00,
2013-03-26 13:07:00,38.7,19.8,29.84,WSW,258,2.0,20.0,46,0.00,,,0.00,meteohub,2013-03-26 17:07:00,
2013-03-26 13:12:00,39.4,18.3,29.84,South,190,18.0,18.0,42,0.04,,,0.04,meteohub,2013-03-26 17:12:00,
2013-03-26 13:17:00,39.7,18.0,29.84,North,10,15.0,18.0,41,0.04,,,0.04,meteohub,2013-03-26 17:17:00,
2013-03-26 13:22:00,38.5,16.9,29.84,WNW,302,7.0,20.0,41,0.04,,,0.04,meteohub,2013-03-26 17:22:00,
2013-03-26 13:27:00,38.3,16.7,29.84,North,10,15.0,25.0,41,0.04,,,0.04,meteohub,2013-03-26 17:27:00,
2013-03-26 13:32:00,38.1,16.5,29.84,WNW,302,8.0,25.0,41,0.04,,,0.04,meteohub,2013-03-26 17:32:00,
2013-03-26 13:37:00,38.5,16.9,29.84,NNE,32,7.0,25.0,41,0.04,,,0.04,meteohub,2013-03-26 17:37:00,
2013-03-26 13:42:00,39.4,17.1,29.84,WNW,302,12.0,25.0,40,0.04,,,0.04,meteohub,2013-03-26 17:42:00,
2013-03-26 13:47:00,41.7,18.7,29.84,WSW,258,7.0,25.0,39,0.04,,,0.04,meteohub,2013-03-26 17:47:00,
2013-03-26 13:52:00,45.0,21.0,29.84,NW,325,6.0,17.0,38,0.04,,,0.04,meteohub,2013-03-26 17:52:00,
2013-03-26 13:57:00,43.9,19.4,29.84,NW,325,21.0,21.0,37,0.04,,,0.04,meteohub,2013-03-26 17:57:00,
2013-03-26 14:02:00,41.7,17.4,29.84,WNW,302,16.0,27.0,37,0.04,,,0.04,meteohub,2013-03-26 18:02:00,
2013-03-26 14:07:00,41.5,17.2,29.84,WNW,302,12.0,27.0,37,0.04,,,0.04,meteohub,2013-03-26 18:07:00,
2013-03-26 14:12:00,38.8,16.0,29.84,West,280,22.0,27.0,39,0.00,,,0.04,meteohub,2013-03-26 18:12:00,
2013-03-26 14:17:00,37.0,15.6,29.84,WSW,258,15.0,26.0,41,0.00,,,0.04,meteohub,2013-03-26 18:17:00,
2013-03-26 14:22:00,36.5,16.2,29.84,WNW,302,12.0,30.0,43,0.00,,,0.04,meteohub,2013-03-26 18:22:00,
2013-03-26 14:32:00,35.6,20.1,29.84,NNW,348,16.0,30.0,53,0.00,,,0.04,meteohub,2013-03-26 18:32:00,
2013-03-26 14:37:00,35.6,21.6,29.84,WSW,258,5.0,22.0,56,0.00,,,0.04,meteohub,2013-03-26 18:37:00,
2013-03-26 14:47:00,40.5,20.3,29.87,SSW,212,8.0,20.0,44,0.04,,,0.08,meteohub,2013-03-26 18:47:00,
2013-03-26 14:52:00,41.7,19.8,29.87,West,280,13.0,20.0,41,0.04,,,0.08,meteohub,2013-03-26 18:52:00,
2013-03-26 15:02:00,41.2,18.7,29.87,WSW,258,8.0,16.0,40,0.04,,,0.08,meteohub,2013-03-26 19:02:00,
2013-03-26 15:12:00,39.6,16.7,29.87,NNE,32,14.0,26.0,39,0.04,,,0.08,meteohub,2013-03-26 19:12:00,
2013-03-26 15:17:00,39.7,16.9,29.87,NNE,32,12.0,26.0,39,0.04,,,0.08,meteohub,2013-03-26 19:17:00,
2013-03-26 15:22:00,38.7,16.0,29.87,NNW,348,11.0,27.0,39,0.08,,,0.12,meteohub,2013-03-26 19:22:00,
2013-03-26 15:27:00,39.0,16.2,29.87,WNW,302,5.0,27.0,39,0.08,,,0.12,meteohub,2013-03-26 19:27:00,
2013-03-26 15:32:00,39.4,16.5,29.87,West,280,12.0,26.0,39,0.08,,,0.12,meteohub,2013-03-26 19:32:00,
2013-03-26 15:37:00,40.6,17.1,29.87,North,10,12.0,26.0,38,0.08,,,0.12,meteohub,2013-03-26 19:37:00,
2013-03-26 15:42:00,41.2,16.9,29.87,North,10,12.0,25.0,37,0.04,,,0.12,meteohub,2013-03-26 19:42:00,
2013-03-26 15:47:00,40.3,15.4,29.87,SSW,212,12.0,25.0,36,0.04,,,0.12,meteohub,2013-03-26 19:47:00,
2013-03-26 15:57:00,39.2,15.8,29.87,NW,325,16.0,26.0,38,0.04,,,0.12,meteohub,2013-03-26 19:57:00,
2013-03-26 16:02:00,39.4,16.0,29.87,WNW,302,20.0,31.0,38,0.04,,,0.12,meteohub,2013-03-26 20:02:00,
2013-03-26 16:07:00,39.4,16.5,29.87,North,10,4.0,31.0,39,0.04,,,0.12,meteohub,2013-03-26 20:07:00,
2013-03-26 16:12:00,39.4,16.0,29.87,NW,325,14.0,25.0,38,0.04,,,0.12,meteohub,2013-03-26 20:12:00,
2013-03-26 16:22:00,38.8,16.0,29.87,NW,325,9.0,29.0,39,0.00,,,0.12,meteohub,2013-03-26 20:22:00,
2013-03-26 16:27:00,38.8,16.0,29.87,WNW,302,6.0,29.0,39,0.00,,,0.12,meteohub,2013-03-26 20:27:00,
2013-03-26 16:37:00,37.9,15.3,29.87,NNE,32,12.0,25.0,39,0.00,,,0.12,meteohub,2013-03-26 20:37:00,
2013-03-26 16:42:00,38.1,15.4,29.87,WNW,302,10.0,21.0,39,0.00,,,0.12,meteohub,2013-03-26 20:42:00,
2013-03-26 16:47:00,37.8,15.6,29.87,NNW,348,13.0,21.0,40,0.00,,,0.12,meteohub,2013-03-26 20:47:00,
2013-03-26 16:52:00,37.9,15.8,29.87,NNW,348,5.0,17.0,40,0.04,,,0.12,meteohub,2013-03-26 20:52:00,
2013-03-26 17:02:00,37.8,15.1,29.87,NNW,348,12.0,17.0,39,0.04,,,0.16,meteohub,2013-03-26 21:02:00,
2013-03-26 17:07:00,37.9,15.3,29.87,West,280,2.0,30.0,39,0.04,,,0.16,meteohub,2013-03-26 21:07:00,
2013-03-26 17:17:00,37.8,15.1,29.87,NW,325,16.0,17.0,39,0.04,,,0.16,meteohub,2013-03-26 21:17:00,
2013-03-26 17:22:00,37.4,14.7,29.87,NNW,348,22.0,22.0,39,0.04,,,0.16,meteohub,2013-03-26 21:22:00,
2013-03-26 17:27:00,37.0,15.1,29.87,WNW,302,8.0,22.0,40,0.04,,,0.16,meteohub,2013-03-26 21:27:00,
2013-03-26 17:32:00,37.0,15.1,29.87,NW,325,13.0,22.0,40,0.04,,,0.16,meteohub,2013-03-26 21:32:00,
2013-03-26 17:42:00,37.0,15.1,29.87,SSW,212,7.0,20.0,40,0.04,,,0.16,meteohub,2013-03-26 21:42:00,
2013-03-26 17:47:00,37.0,15.1,29.87,North,10,8.0,20.0,40,0.04,,,0.16,meteohub,2013-03-26 21:47:00,
2013-03-26 17:52:00,37.0,15.1,29.87,North,10,24.0,24.0,40,0.00,,,0.16,meteohub,2013-03-26 21:52:00,
2013-03-26 18:02:00,36.5,16.7,29.87,WNW,302,12.0,24.0,44,0.00,,,0.16,meteohub,2013-03-26 22:02:00,
2013-03-26 18:07:00,35.6,18.9,29.87,WNW,302,9.0,24.0,50,0.00,,,0.16,meteohub,2013-03-26 22:07:00,
2013-03-26 18:12:00,35.4,19.6,29.87,NW,325,11.0,17.0,52,0.00,,,0.16,meteohub,2013-03-26 22:12:00,
2013-03-26 18:17:00,35.6,19.8,29.87,WNW,302,4.0,26.0,52,0.00,,,0.16,meteohub,2013-03-26 22:17:00,
2013-03-26 18:22:00,35.2,19.0,29.87,SSW,212,5.0,26.0,51,0.00,,,0.16,meteohub,2013-03-26 22:22:00,
2013-03-26 18:32:00,34.9,19.0,29.87,West,280,5.0,13.0,52,0.00,,,0.16,meteohub,2013-03-26 22:32:00,
2013-03-26 18:37:00,34.9,19.0,29.87,NNW,348,5.0,12.0,52,0.00,,,0.16,meteohub,2013-03-26 22:37:00,
2013-03-26 18:47:00,34.7,19.4,29.90,SSW,212,6.0,25.0,53,0.00,,,0.16,meteohub,2013-03-26 22:47:00,
2013-03-26 18:52:00,34.3,19.4,29.90,SSE,168,5.0,25.0,54,0.00,,,0.16,meteohub,2013-03-26 22:52:00,
2013-03-26 18:57:00,34.0,20.5,29.93,NNW,348,5.0,25.0,57,0.00,,,0.16,meteohub,2013-03-26 22:57:00,
2013-03-26 19:07:00,33.6,20.8,29.93,WNW,302,5.0,25.0,59,0.00,,,0.16,meteohub,2013-03-26 23:07:00,
2013-03-26 19:12:00,33.4,20.7,29.93,WNW,302,6.0,19.0,59,0.00,,,0.16,meteohub,2013-03-26 23:12:00,
2013-03-26 19:17:00,33.4,20.7,29.93,SW,235,6.0,19.0,59,0.00,,,0.16,meteohub,2013-03-26 23:17:00,
2013-03-26 19:22:00,33.4,20.7,29.93,WNW,302,5.0,15.0,59,0.00,,,0.16,meteohub,2013-03-26 23:22:00,
2013-03-26 19:27:00,33.4,20.3,29.93,North,10,3.0,15.0,58,0.00,,,0.16,meteohub,2013-03-26 23:27:00,
2013-03-26 19:37:00,33.3,20.1,29.93,WSW,258,12.0,12.0,58,0.00,,,0.16,meteohub,2013-03-26 23:37:00,
2013-03-26 19:42:00,33.3,20.1,29.93,SW,235,3.0,12.0,58,0.00,,,0.16,meteohub,2013-03-26 23:42:00,
2013-03-26 19:47:00,33.3,19.8,29.93,NW,325,8.0,12.0,57,0.00,,,0.16,meteohub,2013-03-26 23:47:00,
2013-03-26 19:52:00,33.3,19.8,29.93,West,280,7.0,12.0,57,0.00,,,0.16,meteohub,2013-03-26 23:52:00,
2013-03-26 19:57:00,33.4,19.4,29.93,West,280,3.0,14.0,56,0.00,,,0.16,meteohub,2013-03-26 23:57:00,
2013-03-26 20:02:00,33.4,19.4,29.93,NNW,348,11.0,14.0,56,0.00,,,0.16,meteohub,2013-03-27 00:02:00,
2013-03-26 20:07:00,33.4,19.4,29.93,SW,235,4.0,12.0,56,0.00,,,0.16,meteohub,2013-03-27 00:07:00,
2013-03-26 20:12:00,33.3,18.9,29.93,NNW,348,6.0,12.0,55,0.00,,,0.16,meteohub,2013-03-27 00:12:00,
2013-03-26 20:17:00,33.3,18.9,29.93,SSW,212,5.0,12.0,55,0.00,,,0.16,meteohub,2013-03-27 00:17:00,
2013-03-26 20:22:00,33.3,18.9,29.93,SW,235,7.0,12.0,55,0.00,,,0.16,meteohub,2013-03-27 00:22:00,
2013-03-26 20:27:00,33.4,19.0,29.93,WNW,302,6.0,12.0,55,0.00,,,0.16,meteohub,2013-03-27 00:27:00,
2013-03-26 20:37:00,33.3,18.9,29.93,NNE,32,5.0,12.0,55,0.00,,,0.16,meteohub,2013-03-27 00:37:00,
2013-03-26 20:42:00,33.3,18.9,29.93,NNE,32,5.0,12.0,55,0.00,,,0.16,meteohub,2013-03-27 00:42:00,
2013-03-26 20:52:00,33.1,19.2,29.93,ENE,78,4.0,12.0,56,0.00,,,0.16,meteohub,2013-03-27 00:52:00,
2013-03-26 20:57:00,33.1,19.2,29.93,North,10,4.0,12.0,56,0.00,,,0.16,meteohub,2013-03-27 00:57:00,
2013-03-26 21:02:00,33.1,19.2,29.93,WSW,258,5.0,11.0,56,0.00,,,0.16,meteohub,2013-03-27 01:02:00,
2013-03-26 21:07:00,33.1,19.2,29.93,WNW,302,3.0,12.0,56,0.00,,,0.16,meteohub,2013-03-27 01:07:00,
2013-03-26 21:17:00,32.9,19.0,29.93,West,280,6.0,10.0,56,0.00,,,0.16,meteohub,2013-03-27 01:17:00,
2013-03-26 21:22:00,33.1,19.2,29.93,SE,145,5.0,12.0,56,0.00,,,0.16,meteohub,2013-03-27 01:22:00,
2013-03-26 21:32:00,33.1,18.7,29.93,NW,325,9.0,17.0,55,0.00,,,0.16,meteohub,2013-03-27 01:32:00,
2013-03-26 21:37:00,33.1,18.7,29.93,SSW,212,5.0,17.0,55,0.00,,,0.16,meteohub,2013-03-27 01:37:00,
2013-03-26 21:42:00,33.1,18.7,29.96,NNE,32,11.0,16.0,55,0.00,,,0.16,meteohub,2013-03-27 01:42:00,
2013-03-26 21:47:00,32.9,18.1,29.96,WNW,302,11.0,13.0,54,0.00,,,0.16,meteohub,2013-03-27 01:47:00,
2013-03-26 21:52:00,33.1,18.3,29.96,SW,235,12.0,13.0,54,0.00,,,0.16,meteohub,2013-03-27 01:52:00,
2013-03-26 21:57:00,33.1,18.7,29.96,WSW,258,12.0,17.0,55,0.00,,,0.16,meteohub,2013-03-27 01:57:00,
2013-03-26 22:02:00,33.1,18.7,29.96,WSW,258,7.0,17.0,55,0.00,,,0.16,meteohub,2013-03-27 02:02:00,
2013-03-26 22:12:00,32.9,18.5,29.96,WSW,258,11.0,21.0,55,0.00,,,0.16,meteohub,2013-03-27 02:12:00,
2013-03-26 22:17:00,32.7,18.3,29.96,SSW,212,6.0,21.0,55,0.00,,,0.16,meteohub,2013-03-27 02:17:00,
2013-03-26 22:27:00,32.7,18.9,29.96,WSW,258,6.0,25.0,56,0.00,,,0.16,meteohub,2013-03-27 02:27:00,
2013-03-26 22:32:00,32.9,18.5,29.96,ENE,78,4.0,25.0,55,0.00,,,0.16,meteohub,2013-03-27 02:32:00,
2013-03-26 22:37:00,32.9,18.5,29.96,SSW,212,7.0,15.0,55,0.00,,,0.16,meteohub,2013-03-27 02:37:00,
2013-03-26 22:42:00,32.7,18.3,29.96,NNW,348,12.0,20.0,55,0.00,,,0.16,meteohub,2013-03-27 02:42:00,
2013-03-26 22:47:00,32.7,18.3,29.96,SSW,212,11.0,20.0,55,0.00,,,0.16,meteohub,2013-03-27 02:47:00,
2013-03-26 22:52:00,32.7,18.0,29.96,SSE,168,16.0,20.0,54,0.00,,,0.16,meteohub,2013-03-27 02:52:00,
2013-03-26 22:57:00,32.7,18.0,29.96,SSW,212,4.0,20.0,54,0.00,,,0.16,meteohub,2013-03-27 02:57:00,
2013-03-26 23:02:00,32.7,18.3,29.96,North,10,9.0,20.0,55,0.00,,,0.16,meteohub,2013-03-27 03:02:00,
2013-03-26 23:12:00,32.4,18.5,29.96,West,280,5.0,17.0,56,0.00,,,0.16,meteohub,2013-03-27 03:12:00,
2013-03-26 23:17:00,32.2,18.3,29.96,NW,325,7.0,17.0,56,0.00,,,0.16,meteohub,2013-03-27 03:17:00,
2013-03-26 23:22:00,32.2,19.9,29.96,SW,235,15.0,16.0,60,0.00,,,0.16,meteohub,2013-03-27 03:22:00,
2013-03-26 23:27:00,32.0,19.8,29.99,SSE,168,2.0,17.0,60,0.00,,,0.16,meteohub,2013-03-27 03:27:00,
2013-03-26 23:32:00,31.8,19.9,29.99,WNW,302,4.0,17.0,61,0.00,,,0.16,meteohub,2013-03-27 03:32:00,
2013-03-26 23:37:00,31.6,20.1,29.99,North,10,5.0,15.0,62,0.00,,,0.16,meteohub,2013-03-27 03:37:00,
2013-03-26 23:42:00,31.5,21.4,29.96,NNE,32,4.0,11.0,66,0.00,,,0.16,meteohub,2013-03-27 03:42:00,
2013-03-26 23:47:00,31.3,21.9,29.96,WNW,302,8.0,13.0,68,0.00,,,0.16,meteohub,2013-03-27 03:47:00,
2013-03-26 23:57:00,30.9,21.9,29.99,South,190,6.0,16.0,69,0.00,,,0.16,meteohub,2013-03-27 03:57:00,